Flag for Germany Weather past 2 weeks in Regensburg, Bavaria, Germany

Now
54 °F

Clear.


Feels Like: 54 °F
Forecast: 54 / 79 °F
Wind: 1 mph from Southeast

Location: Regensburg

Current Time: Jun 3, 2015 at 6:12:11 AM

Latest Report: Jun 3, 2015 at 5:00 AM


Visibility: 16 mi

Pressure: 30.13 "Hg

Humidity: 95%

Dew point: 53 °F

Location of RegensburgLocation

Historic Weather in Regensburg — Graph

°F

Regensburg temperature yesterday

Maximum temperature yesterday: 80 °F (at 6:00 PM)
Minimum temperature yesterday: 54 °F (at 2:00 AM)
Average temperature yesterday: 67 °F

Past Weeks' High & Low Weather Summary

 TemperatureHumidityPressure
High82 °F (Jun 1, 4:00 PM)100% (May 21, 3:00 AM)30.34 "Hg (May 21, 3:00 AM)
Low40 °F (May 22, 5:00 AM)36% (May 28, 5:00 PM)29.74 "Hg (May 19, 4:00 AM)
Average56 °F75%30.04 "Hg
* Reported May 19 4:00 AM — Jun 3 4:00 AM, Regensburg, Weather by CustomWeather, © 2015

Note: Actual official high and low records may vary slightly from our data, if they occured in-between our weather recording intervals... More about our weather records

Advertising

Regensburg weather history for previous 24 hours

 ConditionsComfort  
Time TempWeatherWind HumidityBarometerVisibility
4:00 AM
Wed, Jun 3
56 °FClear.1 mph89%30.12 "Hg19 mi
3:00 AM59 °FClear.1 mph86%30.11 "Hg19 mi
2:00 AM60 °FClear.1 mph82%30.10 "Hg22 mi
1:00 AM60 °FClear.1 mph81%30.10 "Hg25 mi
12:00 AM64 °FClear.1 mph72%30.08 "Hg25 mi
11:00 PM
Tue, Jun 2
64 °FClear.1 mph75%30.07 "Hg25 mi
10:00 PM67 °FPassing clouds.1 mph63%30.05 "Hg34 mi
9:00 PM70 °FPartly sunny.2 mph56%30.03 "Hg43 mi
8:00 PM75 °FOvercast.5 mph44%30.01 "Hg28 mi
7:00 PM78 °FOvercast.3 mph43%30.00 "Hg16 mi
6:00 PM80 °FPartly sunny.5 mph41%30.00 "Hg6 mi
5:00 PM77 °FPartly sunny.6 mph44%30.01 "Hg9 mi
4:00 PM78 °FScattered clouds.6 mph44%30.01 "Hg16 mi
3:00 PM75 °FPartly sunny.6 mph48%30.03 "Hg7 mi
2:00 PM76 °FScattered clouds.6 mph52%30.03 "Hg11 mi
1:00 PM73 °FOvercast.5 mph54%30.05 "Hg6 mi
12:00 PM71 °FScattered clouds.3 mph61%30.07 "Hg7 mi
11:00 AM70 °FOvercast.3 mph64%30.06 "Hg11 mi
10:00 AM69 °FScattered clouds.2 mph69%30.07 "Hg7 mi
9:00 AM65 °FOvercast.2 mph77%30.07 "Hg7 mi
8:00 AM59 °FOvercast.1 mph90%30.09 "Hg11 mi
7:00 AM57 °FOvercast.1 mph93%30.08 "Hg18 mi
Weather by CustomWeather, © 2015

See weather overviewHow to use our weather pages